When you browse on this site, cookies collect data to enhance your experience and personalize the content and advertising you see.
Visit our Privacy Policy to learn more. By continuing to use the site, you agree to this use of cookies and data.
  • In Hungary
  • List of Countries
  • For 7 days
  • Water Temperature
  • Weather Map
  • News
  • Weather Widgets
  • user-avatar
    Login

    Hourly Weather Wlora

    Today, 20 September, Friday

    Time Temperature Precipitation Wind Pressure Humidity
    00:00 +24°C° 1.1 mm 2 mps 761 mmHg 80%
    01:00 +23°C° 1.1 mm 2 mps 761 mmHg 82%
    02:00 +22°C° 0.8 mm 3 mps 761 mmHg 82%
    03:00 +22°C° 0.8 mm 5 mps 761 mmHg 83%
    04:00 +22°C° 0.8 mm 6 mps 761 mmHg 83%
    05:00 +22°C° 0.2 mm 7 mps 761 mmHg 82%
    06:00 +22°C° 0.2 mm 7 mps 762 mmHg 81%
    07:00 +22°C° 0.2 mm 8 mps 762 mmHg 80%
    08:00 +23°C° 0 mm 8 mps 762 mmHg 75%
    09:00 +24°C° 0 mm 8 mps 762 mmHg 69%
    10:00 +26°C° 0 mm 8 mps 763 mmHg 64%
    11:00 +26°C° 0 mm 8 mps 763 mmHg 62%
    12:00 +26°C° 0 mm 9 mps 762 mmHg 60%
    13:00 +26°C° 0 mm 9 mps 762 mmHg 58%
    14:00 +26°C° 0 mm 9 mps 762 mmHg 56%
    15:00 +26°C° 0 mm 10 mps 762 mmHg 54%
    16:00 +24°C° 0 mm 10 mps 762 mmHg 52%
    17:00 +23°C° 0 mm 9 mps 762 mmHg 55%
    18:00 +22°C° 0 mm 9 mps 763 mmHg 57%
    19:00 +21°C° 0 mm 9 mps 763 mmHg 60%
    20:00 +21°C° 0 mm 8 mps 763 mmHg 60%
    21:00 +20°C° 0 mm 8 mps 764 mmHg 60%
    22:00 +20°C° 0 mm 7 mps 764 mmHg 60%
    23:00 +20°C° 0 mm 7 mps 764 mmHg 59%

    Tomorrow, 21 September, Saturday

    Time Temperature Precipitation Wind Pressure Humidity
    00:00 +20°C° 0 mm 6 mps 764 mmHg 58%
    01:00 +20°C° 0 mm 5 mps 764 mmHg 57%
    02:00 +20°C° 0 mm 5 mps 764 mmHg 55%
    03:00 +19°C° 0 mm 4 mps 764 mmHg 53%
    04:00 +19°C° 0 mm 4 mps 765 mmHg 51%
    05:00 +20°C° 0 mm 4 mps 765 mmHg 49%
    06:00 +20°C° 0 mm 4 mps 765 mmHg 47%
    07:00 +21°C° 0 mm 4 mps 765 mmHg 46%
    08:00 +22°C° 0 mm 3 mps 765 mmHg 43%
    09:00 +25°C° 0 mm 3 mps 766 mmHg 41%
    10:00 +27°C° 0 mm 2 mps 766 mmHg 39%
    11:00 +27°C° 0 mm 2 mps 766 mmHg 39%
    12:00 +27°C° 0 mm 3 mps 765 mmHg 40%
    13:00 +28°C° 0 mm 3 mps 765 mmHg 40%
    14:00 +27°C° 0 mm 3 mps 765 mmHg 43%
    15:00 +26°C° 0 mm 3 mps 765 mmHg 45%
    16:00 +26°C° 0 mm 3 mps 765 mmHg 47%
    17:00 +25°C° 0 mm 3 mps 765 mmHg 50%
    18:00 +22°C° 0 mm 3 mps 765 mmHg 53%
    19:00 +21°C° 0 mm 4 mps 765 mmHg 56%
    20:00 +21°C° 0 mm 4 mps 765 mmHg 56%
    21:00 +21°C° 0 mm 4 mps 765 mmHg 55%
    22:00 +20°C° 0 mm 4 mps 765 mmHg 55%
    23:00 +20°C° 0 mm 3 mps 765 mmHg 55%

    Day after tomorrow, 22 September, Sunday

    Time Temperature Precipitation Wind Pressure Humidity
    00:00 +20°C° 0 mm 3 mps 765 mmHg 54%
    01:00 +20°C° 0 mm 3 mps 765 mmHg 53%
    02:00 +20°C° 0 mm 3 mps 765 mmHg 54%
    03:00 +20°C° 0 mm 3 mps 765 mmHg 54%
    04:00 +19°C° 0 mm 3 mps 765 mmHg 55%
    05:00 +20°C° 0 mm 2 mps 765 mmHg 53%
    06:00 +21°C° 0 mm 2 mps 765 mmHg 52%
    07:00 +23°C° 0 mm 2 mps 764 mmHg 51%
    08:00 +24°C° 0 mm 2 mps 765 mmHg 50%
    09:00 +25°C° 0 mm 2 mps 765 mmHg 48%
    10:00 +26°C° 0 mm 2 mps 765 mmHg 47%
    11:00 +27°C° 0 mm 2 mps 765 mmHg 48%
    12:00 +27°C° 0 mm 2 mps 764 mmHg 49%
    13:00 +28°C° 0 mm 2 mps 764 mmHg 50%
    14:00 +27°C° 0 mm 2 mps 764 mmHg 52%
    15:00 +27°C° 0 mm 2 mps 763 mmHg 54%
    16:00 +26°C° 0 mm 2 mps 763 mmHg 57%
    17:00 +25°C° 0 mm 2 mps 763 mmHg 62%
    18:00 +24°C° 0 mm 2 mps 763 mmHg 67%
    19:00 +22°C° 0 mm 3 mps 763 mmHg 72%
    20:00 +22°C° 0 mm 3 mps 763 mmHg 72%
    21:00 +22°C° 0 mm 3 mps 763 mmHg 73%
    22:00 +22°C° 0 mm 3 mps 763 mmHg 73%
    23:00 +22°C° 0 mm 3 mps 763 mmHg 73%

    23 September, Monday

    Time Temperature Precipitation Wind Pressure Humidity
    00:00 +21°C° 0 mm 3 mps 763 mmHg 73%
    01:00 +21°C° 0 mm 3 mps 763 mmHg 73%
    02:00 +22°C° 0 mm 4 mps 763 mmHg 70%
    03:00 +22°C° 0 mm 4 mps 763 mmHg 68%
    04:00 +22°C° 0 mm 4 mps 763 mmHg 66%
    05:00 +22°C° 0 mm 4 mps 762 mmHg 66%
    06:00 +22°C° 0 mm 5 mps 762 mmHg 65%
    07:00 +23°C° 0 mm 5 mps 762 mmHg 65%
    08:00 +24°C° 0 mm 6 mps 762 mmHg 60%
    09:00 +26°C° 0 mm 7 mps 762 mmHg 56%
    10:00 +27°C° 0 mm 8 mps 762 mmHg 51%
    11:00 +28°C° 0 mm 8 mps 762 mmHg 50%
    12:00 +29°C° 0 mm 8 mps 761 mmHg 48%
    13:00 +31°C° 0 mm 8 mps 761 mmHg 46%
    14:00 +29°C° 0 mm 9 mps 760 mmHg 50%
    15:00 +29°C° 0 mm 9 mps 760 mmHg 53%
    16:00 +28°C° 0 mm 10 mps 759 mmHg 57%
    17:00 +27°C° 0 mm 11 mps 759 mmHg 63%
    18:00 +26°C° 0 mm 11 mps 759 mmHg 68%
    19:00 +24°C° 0 mm 12 mps 758 mmHg 74%
    20:00 +24°C° 0 mm 12 mps 758 mmHg 76%
    21:00 +24°C° 0 mm 12 mps 758 mmHg 77%
    22:00 +24°C° 0 mm 12 mps 758 mmHg 79%
    23:00 +24°C° 0.9 mm 12 mps 758 mmHg 81%

    24 September, Tuesday

    Time Temperature Precipitation Wind Pressure Humidity
    00:00 +23°C° 0.9 mm 11 mps 758 mmHg 84%
    01:00 +23°C° 0.9 mm 10 mps 758 mmHg 86%
    02:00 +23°C° 2.4 mm 9 mps 757 mmHg 87%
    03:00 +23°C° 2.4 mm 8 mps 757 mmHg 88%
    04:00 +23°C° 2.4 mm 6 mps 757 mmHg 89%
    05:00 +23°C° 0.6 mm 5 mps 756 mmHg 84%
    06:00 +25°C° 0.6 mm 5 mps 756 mmHg 80%
    07:00 +25°C° 0.6 mm 4 mps 756 mmHg 76%
    08:00 +26°C° 0.2 mm 4 mps 756 mmHg 71%
    09:00 +26°C° 0.2 mm 4 mps 756 mmHg 67%
    10:00 +26°C° 0.2 mm 5 mps 757 mmHg 62%
    11:00 +27°C° 0 mm 5 mps 757 mmHg 59%
    12:00 +27°C° 0 mm 6 mps 756 mmHg 56%
    13:00 +27°C° 0 mm 7 mps 756 mmHg 54%
    14:00 +26°C° 0.1 mm 7 mps 756 mmHg 55%
    15:00 +26°C° 0.1 mm 7 mps 756 mmHg 56%
    16:00 +24°C° 0.1 mm 7 mps 756 mmHg 58%
    17:00 +23°C° 0.1 mm 7 mps 756 mmHg 63%
    18:00 +22°C° 0.1 mm 6 mps 756 mmHg 68%
    19:00 +21°C° 0.1 mm 6 mps 757 mmHg 73%
    20:00 +21°C° 0.1 mm 6 mps 757 mmHg 75%
    21:00 +20°C° 0.1 mm 6 mps 757 mmHg 77%
    22:00 +20°C° 0.1 mm 5 mps 757 mmHg 79%
    23:00 +20°C° 0 mm 5 mps 757 mmHg 80%

    25 September, Wednesday

    Time Temperature Precipitation Wind Pressure Humidity
    00:00 +20°C° 0 mm 5 mps 757 mmHg 82%
    01:00 +19°C° 0 mm 4 mps 757 mmHg 83%
    02:00 +19°C° 0 mm 5 mps 757 mmHg 82%
    03:00 +19°C° 0 mm 5 mps 757 mmHg 81%
    04:00 +19°C° 0 mm 5 mps 757 mmHg 80%
    05:00 +19°C° 0 mm 5 mps 757 mmHg 76%
    06:00 +20°C° 0 mm 5 mps 757 mmHg 73%
    07:00 +20°C° 0 mm 5 mps 757 mmHg 70%
    08:00 +22°C° 0 mm 6 mps 758 mmHg 64%
    09:00 +23°C° 0 mm 6 mps 758 mmHg 58%
    10:00 +24°C° 0 mm 6 mps 758 mmHg 52%
    11:00 +26°C° 0 mm 6 mps 758 mmHg 50%
    12:00 +27°C° 0 mm 6 mps 758 mmHg 49%
    13:00 +27°C° 0 mm 7 mps 758 mmHg 48%
    14:00 +27°C° 0 mm 6 mps 758 mmHg 51%
    15:00 +26°C° 0 mm 6 mps 758 mmHg 54%
    16:00 +26°C° 0 mm 6 mps 758 mmHg 57%
    17:00 +23°C° 0 mm 5 mps 758 mmHg 62%
    18:00 +22°C° 0 mm 5 mps 758 mmHg 66%
    19:00 +21°C° 0 mm 4 mps 759 mmHg 71%
    20:00 +21°C° 0 mm 4 mps 759 mmHg 70%
    21:00 +21°C° 0 mm 3 mps 759 mmHg 69%
    22:00 +21°C° 0 mm 3 mps 759 mmHg 69%
    23:00 +21°C° 0 mm 2 mps 759 mmHg 68%
    Show more